Regional Weather Roundup
Issued by NWS

Home | Current Version | Previous Version | Graphics & Text | Print | Product List | Glossary Off
Versions: 1 2 3 4 5 6 7 8 9 10 11 12 13 14 15 16 17 18 19 20 21 22 23 24 25 26 27 28 29 30 31 32 33 34 35 36 37 38 39 40 41 42 43 44 45 46 47 48 49 50

000
ASUS43 KDMX 271007
RWRIA

WEATHER ROUNDUP FOR IOWA
NATIONAL WEATHER SERVICE DES MOINES IA
500 AM CDT MON APR 27 2015

NOTE: "FAIR" INDICATES FEW OR NO CLOUDS BELOW 12,000 FEET WITH NO
SIGNIFICANT WEATHER AND/OR OBSTRUCTIONS TO VISIBILITY.

* - THESE STATIONS ARE NOT NWS STATIONS...THUS NOT UNDER NWS
QUALITY CONTROL.  THEY ALSO DO NOT REPORT WEATHER SUCH
AS PRECIPITATION OR FOG.

IAZ001>003-012>014-020>022-031>034-043>046-271100-
   NORTHWEST IOWA

CITY           SKY/WX    TMP DP  RH WIND       PRES   REMARKS
CARROLL *      PTCLDY    36  32  87 W6        30.15R WCI  31
CHEROKEE *     CLEAR     36  34  93 NE3       30.16R
DENISON *      CLEAR     34  34 100 CALM      30.14R
LE MARS *      CLEAR     36  32  87 N3        30.18R
ORANGE CITY *  CLEAR     43  28  56 E3        30.16S
SHELDON *      CLEAR     34  27  75 CALM      30.16R
SIOUX CITY     CLEAR     34  28  79 SW5       30.17R WCI  30
SPENCER        CLEAR     31  26  82 N8        30.17R WCI  23
STORM LAKE *   CLEAR     37  28  70 N8        30.16R WCI  31
$$

IAZ055>058-069>071-079>083-090>094-271100-
   SOUTHWEST IOWA

CITY           SKY/WX    TMP DP  RH WIND       PRES   REMARKS
ATLANTIC *     CLEAR     34  34 100 N5        30.15R WCI  30
AUDUBON *      CLEAR     34  30  86 CALM      30.16R
CLARINDA *     CLEAR     36  36 100 N7        30.15R WCI  30
COUNCIL BLFS * CLEAR     41  36  81 N5        30.14R
CRESTON *      CLEAR     43  30  61 N7        30.13R
HARLAN  *      CLEAR     34  34 100 CALM      30.19R
LAMONI         CLEAR     41  32  70 N5        30.11R
RED OAK *      CLEAR     36  34  93 CALM      30.14R
SHENANDOAH *   CLEAR     34  34 100 NE5       30.14R WCI  30
$$

IAZ047>049-059>061-072>074-084-271100-
   CENTRAL IOWA

CITY           SKY/WX    TMP DP  RH WIND       PRES   REMARKS
AMES           CLEAR     38  30  73 NW3       30.13R
ANKENY *       CLEAR     36  32  87 CALM      30.13R
CHARITON *     CLEAR     37  34  87 NW6       30.12R WCI  33
DES MOINES     CLEAR     41  32  70 NW3       30.13R
GRINNELL*      CLEAR     37  30  75 NW5       30.11R WCI  34
KNOXVILLE *    CLEAR     36  32  87 NW6       30.11R WCI  31
MARSHALLTOWN   CLEAR     37  29  72 N7        30.11R WCI  32
PELLA *        CLEAR     37  34  87 W3        30.13R
PERRY *          N/A     39  32  75 NW5       30.13R
$$

IAZ004>006-015-016-023>025-035-036-271100-
   NORTH CENTRAL IOWA

CITY           SKY/WX    TMP DP  RH WIND       PRES   REMARKS
ALGONA *       CLEAR     37  28  70 N6        30.16S WCI  33
CLARION *      CLEAR     37  30  75 N7        30.13S WCI  32
ESTHERVILLE    CLEAR     32  23  69 NW7       30.16S WCI  26
FORT DODGE *   CLEAR     39  28  65 CALM      30.15R
MASON CITY     CLEAR     32  26  78 N9        30.14S WCI  24
FOREST CITY *  CLEAR     37  28  70 CALM      30.14S
IOWA FALLS *     N/A     39  28  65 CALM      30.14R
$$

IAZ007>011-017>019-026>030-037>042-050>054-066-271100-
   NORTHEAST IOWA

CITY           SKY/WX    TMP DP  RH WIND       PRES   REMARKS
CEDAR RAPIDS   CLEAR     36  30  79 NW8       30.08R WCI  30
CHARLES CITY * CLEAR     39  28  65 NE8       30.12S WCI  34
CLINTON *      CLEAR     36  28  75 E9        30.11S WCI  29
DECORAH *      CLEAR     41  27  56 VRB6      30.11F
DUBUQUE        CLEAR     35  29  78 NE8       30.10S WCI  29
MONTICELLO *   CLEAR     37  32  81 CALM      30.10R
OELWEIN *      CLEAR     41  30  65 NE10      30.10F
WATERLOO       CLEAR     33  29  85 W3        30.11R
$$

IAZ064-065-067-068-078-271100-
   EAST CENTRAL IOWA

CITY           SKY/WX    TMP DP  RH WIND       PRES   REMARKS
DAVENPORT      CLEAR     36  30  79 E7        30.10R WCI  30
IOWA CITY      CLEAR     39  31  72 CALM      30.10R
MT. PLEASANT * CLEAR     39  34  81 NW6       30.09S WCI  35
MUSCATINE *    CLEAR     37  32  81 CALM      30.09R
QUAD CITIES    CLEAR     37  33  85 E7        30.09R WCI  32
$$

IAZ062-063-075>077-085>089-095>099-271100-
   SOUTHEAST IOWA

CITY           SKY/WX    TMP DP  RH WIND       PRES   REMARKS
BURLINGTON     CLEAR     42  33  70 NW6       30.07S
FAIRFIELD *    CLEAR     37  32  81 W6        30.10R WCI  33
FORT MADISON * CLEAR     41  34  75 W3        30.09S
KEOKUK *       CLEAR     39  34  81 N3        30.07S
OSKALOOSA *      N/A     36  32  87 W7        30.11R WCI  30
CENTERVILLE *  CLEAR     36  32  87 NW6       30.12R WCI  31
OTTUMWA        CLEAR     35  33  92 NW6       30.10R WCI  30
WASHINGTON *   CLEAR     39  37  93 W7        30.09R WCI  34
$$

ABBREVIATIONS USED IN REMARKS
   TC - TEMPERATURES IN CELSIUS
  WCI - WIND CHILL INDEX
   HX - HEAT INDEX
  VSB - VISIBILITY
$$




USA.gov is the U.S. government's official web portal to all federal, state and local government web resources and services.